Regional Weather Roundup
Issued by NWS

Home | Current Version | Previous Version | Text Only | Print | Product List | Glossary Off
Versions: 1 2 3 4 5 6 7 8 9 10 11 12 13 14 15 16 17 18 19 20 21 22 23 24 25 26 27 28 29 30 31 32 33 34 35 36 37 38 39 40 41 42 43 44 45 46 47 48 49 50

000
ASUS45 KCYS 231610
RWRWY

WYOMING REGIONAL WEATHER ROUNDUP
NATIONAL WEATHER SERVICE CHEYENNE WY
900 AM MST SUN NOV 23 2014

NOTE:  "FAIR" INDICATES FEW OR NO CLOUDS BELOW 12,000 FEET
WITH NO SIGNIFICANT WEATHER AND/OR OBSTRUCTIONS TO VISIBILITY.

WYZ001-231700-
YELLOWSTONE NATIONAL PARK

CITY           SKY/WX    TMP DP  RH WIND       PRES   REMARKS
LK YELLOWSTONE   N/A     18  12  77 W9G16     29.93R WCI   7
W YELLOWSTONE  NOT AVBL

$$
WYZ002>013-054>058-071-098>099-231700-
NORTHERN WYOMING

CITY           SKY/WX    TMP DP  RH WIND       PRES   REMARKS
JACKSON        CLOUDY    25  18  74 W24       29.95S WCI   9
CODY           PTSUNNY   32  18  55 W10       29.88R WCI  24
GREYBULL       PTSUNNY   32  21  64 NW10      29.89R WCI  24
WORLAND        CLOUDY    24  19  81 SW8       29.91R WCI  15
SHERIDAN       MOSUNNY   37  17  44 NW20      29.84R WCI  27
BUFFALO        MOSUNNY   35  12  38 NW23G38   29.82R WCI  23
GILLETTE       NOT AVBL
HULETT           N/A    N/A N/A N/A MISG        N/A
NEWCASTLE      FAIR      32  19  59 NW10      29.80R WCI  24

$$
WYZ014>020-022>026-101>103-231700-
CENTRAL WYOMING

CITY           SKY/WX    TMP DP  RH WIND       PRES   REMARKS
BIG PINEY      SUNNY     37  15  40 NW17      29.97R WCI  27
PINEDALE       SUNNY     21  14  73 NW14      29.97R WCI   8
DUBOIS         FAIR      23  10  58 NW22G31   29.90R WCI   8
LANDER         NOT AVBL
RIVERTON       PTSUNNY   30  15  53 NW16      29.90R WCI  19
CASPER         PTSUNNY   30  18  60 NW6       29.86R WCI  24
DOUGLAS        MOSUNNY  N/A N/A N/A NW15      29.84R

$$
WYZ021-027>030-104>119-231700-
SOUTHERN WYOMING

CITY           SKY/WX    TMP DP  RH WIND       PRES   REMARKS
EVANSTON       PTSUNNY   22  17  81 W12       30.05R WCI  10
KEMMERER       MOSUNNY   25  19  80 W15G24    30.01R WCI  12
FORT BRIDGER   CLOUDY    26  22  85 W17       30.06R WCI  13
ROCK SPRINGS   PTSUNNY   23  19  85 SW10      29.95R WCI  12
DIXON          SNOW      26  24  95 CALM      29.94R VSB 1/4
RAWLINS        CLOUDY    25  18  74 W14G22    29.87R WCI  13
SARATOGA       CLOUDY    28  23  80 W16G22    29.86S WCI  17
LARAMIE        SUNNY     27   9  46 W7        29.80R WCI  19
CHEYENNE       SUNNY     33  10  38 NW18G30   29.77R WCI  22
TORRINGTON     SUNNY     35  19  52 MISG      29.78R
PINE BLUFFS    FAIR      32  23  69 NW12G17   29.77R WCI  23

$$



USA.gov is the U.S. government's official web portal to all federal, state and local government web resources and services.